W7BTL Weather Reports


time (UTC)temp
F
wind
direction
speed
knots
gust
knots
rain 1hr
in
rain 24hr
in
rain mn
in
humidity
%
barometer
mb
20260509004402 74 196 0.9 0.9 0.00 0.00 0.00 58 1013.0
20260509003900 75 193 0.9 1.7 0.00 0.00 0.00 57 1013.0
20260509003358 75 213 0.0 0.0 0.00 0.00 0.00 56 1013.1
20260509002854 76 189 1.7 1.7 0.00 0.00 0.00 54 1012.8
20260509002352 77 175 0.0 0.0 0.00 0.00 0.00 54 1012.6
20260509001850 77 166 0.9 0.9 0.00 0.00 0.00 53 1012.8
20260509001345 77 158 0.9 0.9 0.00 0.00 0.00 52 1012.9
20260509000843 78 157 0.9 0.9 0.00 0.00 0.00 51 1012.9
20260509000341 78 149 0.9 0.9 0.00 0.00 0.00 51 1013.0
20260508235836 78 165 1.7 1.7 0.00 0.00 0.00 51 1012.9
20260508235334 78 220 0.0 0.0 0.00 0.00 0.00 51 1012.7
20260508234831 78 219 0.0 0.9 0.00 0.00 0.00 50 1012.9
20260508234327 79 199 0.0 0.0 0.00 0.00 0.00 50 1012.9
20260508233826 80 184 0.9 0.9 0.00 0.00 0.00 49 1012.8
20260508233325 80 159 0.0 0.0 0.00 0.00 0.00 48 1013.0
20260508232821 81 140 0.9 0.9 0.00 0.00 0.00 47 1013.0
20260508232317 82 178 0.0 0.0 0.00 0.00 0.00 47 1013.1
20260508231816 82 161 0.0 0.0 0.00 0.00 0.00 46 1013.2
20260508231312 83 170 0.0 0.0 0.00 0.00 0.00 45 1013.3
20260508230809 84 179 0.0 0.0 0.00 0.00 0.00 44 1013.1
20260508230305 86 127 0.9 1.7 0.00 0.00 0.00 41 1013.2
20260508225803 88 180 0.0 0.0 0.00 0.00 0.00 39 1013.3
20260508225259 90 137 0.9 0.9 0.00 0.00 0.00 37 1013.2
20260508224757 92 186 0.9 0.9 0.00 0.00 0.00 35 1013.2
20260508224254 93 197 0.0 0.0 0.00 0.00 0.00 34 1013.4
20260508223752 92 194 0.0 0.0 0.00 0.00 0.00 34 1013.7
20260508223249 92 204 0.0 0.0 0.00 0.00 0.00 35 1013.6
20260508222746 93 182 0.9 0.9 0.00 0.00 0.00 34 1013.5
20260508222243 92 138 0.9 0.9 0.00 0.00 0.00 35 1013.8
20260508221740 91 231 0.0 0.0 0.00 0.00 0.00 35 1013.7
20260508221236 91 234 0.0 0.0 0.00 0.00 0.00 36 1013.9
20260508220732 91 235 1.7 1.7 0.00 0.00 0.00 36 1014.0
20260508220229 88 186 0.0 0.9 0.00 0.00 0.00 39 1013.9
20260508215725 87 259 0.9 0.9 0.00 0.00 0.00 40 1013.9
20260508215222 88 243 0.0 0.0 0.00 0.00 0.00 39 1014.1
20260508214719 88 232 1.7 1.7 0.00 0.00 0.00 39 1014.1
20260508214217 88 249 1.7 1.7 0.00 0.00 0.00 39 1014.1
20260508213713 88 205 0.9 0.9 0.00 0.00 0.00 39 1014.0
20260508213209 88 219 0.9 0.9 0.00 0.00 0.00 38 1014.2
20260508212706 87 261 0.9 0.9 0.00 0.00 0.00 40 1014.2
20260508212202 88 253 0.0 0.0 0.00 0.00 0.00 39 1014.1
20260508211658 89 240 1.7 1.7 0.00 0.00 0.00 37 1014.2
20260508211154 90 222 0.9 0.0 0.00 0.00 0.00 36 1014.3
20260508210651 89 211 0.9 0.9 0.00 0.00 0.00 37 1014.2
20260508210148 88 275 0.9 0.9 0.00 0.00 0.00 39 1014.4
20260508205645 88 273 0.9 0.9 0.00 0.00 0.00 38 1014.4
20260508205142 90 292 0.9 0.9 0.00 0.00 0.00 37 1014.6
20260508204638 89 204 0.0 0.0 0.00 0.00 0.00 37 1014.6
20260508204134 88 203 0.9 0.9 0.00 0.00 0.00 38 1014.6
20260508203631 87 111 0.0 0.0 0.00 0.00 0.00 40 1014.6
20260508203126 85 240 0.9 0.9 0.00 0.00 0.00 42 1014.7
20260508202623 86 274 1.7 1.7 0.00 0.00 0.00 41 1014.9
20260508202120 89 162 0.0 0.0 0.00 0.00 0.00 37 1014.9
20260508201617 90 184 0.0 0.0 0.00 0.00 0.00 37 1014.9
20260508201113 90 187 0.9 0.9 0.00 0.00 0.00 36 1015.0
20260508200611 89 184 1.7 0.9 0.00 0.00 0.00 37 1015.3
20260508200106 87 181 0.9 0.9 0.00 0.00 0.00 39 1015.1
20260508195603 86 239 0.9 0.9 0.00 0.00 0.00 40 1015.3
20260508195059 86 246 0.9 0.9 0.00 0.00 0.00 41 1015.3
20260508194556 85 246 1.7 1.7 0.00 0.00 0.00 41 1015.3
20260508194054 84 234 0.9 0.9 0.00 0.00 0.00 43 1015.2
20260508193549 84 236 0.9 0.9 0.00 0.00 0.00 43 1015.2
20260508193047 84 234 0.9 0.9 0.00 0.00 0.00 43 1015.5
20260508192543 83 230 0.0 0.0 0.00 0.00 0.00 44 1015.4
20260508192041 81 230 0.0 0.0 0.00 0.00 0.00 46 1015.6
20260508191537 81 229 0.9 0.9 0.00 0.00 0.00 47 1015.7
20260508191034 82 226 1.7 1.7 0.00 0.00 0.00 45 1015.6
20260508190531 80 212 0.9 0.9 0.00 0.00 0.00 49 1015.6
20260508190027 77 216 0.9 0.9 0.00 0.00 0.00 52 1015.9
20260508185525 76 217 0.9 0.9 0.00 0.00 0.00 54 1016.0
20260508185022 76 210 0.0 0.0 0.00 0.00 0.00 55 1016.0
20260508184520 75 210 0.0 0.0 0.00 0.00 0.00 55 1015.9
20260508184016 75 211 0.9 0.9 0.00 0.00 0.00 57 1016.0
20260508183513 75 156 0.9 0.9 0.00 0.00 0.00 56 1016.1
20260508183008 73 156 0.0 0.0 0.00 0.00 0.00 59 1016.2
20260508182505 72 156 0.0 0.0 0.00 0.00 0.00 63 1016.2
20260508182001 71 156 0.9 0.9 0.00 0.00 0.00 63 1016.1
20260508181457 72 156 0.9 1.7 0.00 0.00 0.00 62 1016.2
20260508180955 71 160 0.0 0.0 0.00 0.00 0.00 64 1016.3
20260508180451 70 186 0.0 0.0 0.00 0.00 0.00 65 1016.1
20260508175948 70 186 0.0 0.0 0.00 0.00 0.00 66 1016.4
20260508175444 70 186 0.0 0.0 0.00 0.00 0.00 66 1016.1
20260508174942 70 205 0.0 0.0 0.00 0.00 0.00 66 1016.5
20260508174440 69 204 0.0 0.0 0.00 0.00 0.00 67 1016.5
20260508173936 69 204 0.0 0.0 0.00 0.00 0.00 67 1016.5
20260508173433 68 204 0.0 0.0 0.00 0.00 0.00 68 1016.5
20260508172929 68 204 0.0 0.0 0.00 0.00 0.00 69 1016.6
20260508172427 68 204 0.0 0.0 0.00 0.00 0.00 71 1016.6
20260508171923 67 204 0.0 0.0 0.00 0.00 0.00 71 1016.5
20260508171419 67 204 0.0 0.0 0.00 0.00 0.00 71 1016.6
20260508170916 67 204 0.0 0.0 0.00 0.00 0.00 72 1016.4
20260508170413 66 204 0.0 0.0 0.00 0.00 0.00 73 1016.4
20260508165910 66 204 0.0 0.9 0.00 0.00 0.00 73 1016.4
20260508165408 66 179 0.0 0.0 0.00 0.00 0.00 74 1016.7
20260508164903 66 185 0.0 0.0 0.00 0.00 0.00 73 1016.4
20260508164401 66 109 0.0 0.0 0.00 0.00 0.00 74 1016.4
20260508163858 66 109 0.0 0.0 0.00 0.00 0.00 74 1016.5
20260508163356 66 109 0.9 0.9 0.00 0.00 0.00 74 1016.4
20260508162851 66 112 0.0 0.0 0.00 0.00 0.00 74 1016.3
20260508162349 66 115 0.0 0.0 0.00 0.00 0.00 75 1016.5
20260508161846 65 111 0.0 0.0 0.00 0.00 0.00 75 1016.4
20260508161343 65 115 0.9 0.9 0.00 0.00 0.00 75 1016.3
20260508160840 65 118 0.9 0.9 0.00 0.00 0.00 75 1016.5
20260508160339 65 107 0.0 0.0 0.00 0.00 0.00 76 1016.5
20260508155835 65 107 0.9 0.9 0.00 0.00 0.00 76 1016.3
20260508155332 65 108 0.9 0.9 0.00 0.00 0.00 76 1016.4
20260508154829 64 79 0.0 0.0 0.00 0.00 0.00 77 1016.2
20260508154327 64 78 0.0 0.0 0.00 0.00 0.00 78 1016.2
20260508153822 64 78 0.0 0.0 0.00 0.00 0.00 78 1016.2
20260508153321 64 70 0.0 0.0 0.00 0.00 0.00 78 1016.2
20260508152816 64 70 0.0 0.0 0.00 0.00 0.00 78 1016.4
20260508152312 64 70 0.0 0.0 0.00 0.00 0.00 78 1016.2
20260508151808 64 70 0.0 0.0 0.00 0.00 0.00 79 1016.5
20260508151306 64 69 0.0 0.0 0.00 0.00 0.00 79 1016.4
20260508150802 64 64 0.0 0.9 0.00 0.00 0.00 79 1016.3
20260508150259 64 60 0.9 0.9 0.00 0.00 0.00 79 1016.5
20260508145755 64 67 0.0 0.0 0.00 0.00 0.00 79 1016.5
20260508145251 64 67 0.0 0.0 0.00 0.00 0.00 79 1016.5
20260508144748 63 67 0.0 0.0 0.00 0.00 0.00 80 1016.4
20260508144246 63 67 0.0 0.0 0.00 0.00 0.00 80 1016.6
20260508143743 63 67 0.0 0.0 0.00 0.00 0.00 81 1016.5
20260508143240 63 69 0.0 0.0 0.00 0.00 0.00 81 1016.4
20260508142736 63 69 0.0 0.0 0.00 0.00 0.00 81 1016.5
20260508142234 63 68 0.0 0.0 0.00 0.00 0.00 81 1016.6
20260508141730 63 64 0.0 0.0 0.00 0.00 0.00 82 1016.3
20260508141228 62 63 0.0 0.0 0.00 0.00 0.00 82 1016.4
20260508140725 62 61 0.0 0.0 0.00 0.00 0.00 82 1016.3
20260508140222 62 95 0.9 0.9 0.00 0.00 0.00 82 1016.1
20260508135718 63 121 0.9 0.9 0.00 0.00 0.00 82 1016.2
20260508135214 62 124 0.0 0.0 0.00 0.00 0.00 82 1016.2
20260508134709 62 124 0.0 0.0 0.00 0.00 0.00 83 1016.3
20260508134207 62 101 0.0 0.0 0.00 0.00 0.00 82 1016.3
20260508133704 62 101 0.0 0.0 0.00 0.00 0.00 82 1016.2
20260508133201 62 101 0.0 0.0 0.00 0.00 0.00 83 1016.2
20260508132659 62 101 0.0 0.0 0.00 0.00 0.00 82 1016.2
20260508132156 62 101 0.0 0.0 0.00 0.00 0.00 82 1016.1
20260508131651 62 103 0.9 1.7 0.00 0.00 0.00 83 1016.1
20260508131148 62 110 0.0 0.0 0.00 0.00 0.00 83 1016.1
20260508130644 62 110 0.0 0.0 0.00 0.00 0.00 83 1015.9
20260508130142 62 110 0.0 0.0 0.00 0.00 0.00 83 1015.8
20260508125637 62 110 0.0 0.0 0.00 0.00 0.00 83 1015.8
20260508125134 62 104 0.9 0.9 0.00 0.00 0.00 83 1015.7
20260508124632 62 145 0.0 0.0 0.00 0.00 0.00 82 1015.7
20260508124129 62 146 0.0 0.0 0.00 0.00 0.00 82 1015.8
20260508123628 62 146 0.0 0.0 0.00 0.00 0.00 83 1015.9
20260508123125 62 146 0.0 0.0 0.00 0.00 0.00 83 1015.8
20260508122620 62 146 0.0 0.0 0.00 0.00 0.00 83 1015.7
20260508122118 62 146 0.0 0.0 0.00 0.00 0.00 83 1015.7
20260508121616 62 146 0.0 0.0 0.00 0.00 0.00 83 1015.5
20260508121114 62 146 0.0 0.0 0.00 0.00 0.00 83 1015.6
20260508120611 62 146 0.0 0.0 0.00 0.00 0.00 83 1015.7
20260508120110 62 146 0.0 0.0 0.00 0.00 0.00 83 1015.3
20260508115606 62 146 0.0 0.0 0.00 0.00 0.00 82 1015.5
20260508115103 62 146 0.0 0.0 0.00 0.00 0.00 83 1015.7
20260508114600 62 146 0.0 0.0 0.00 0.00 0.00 83 1015.5
20260508114056 62 145 0.0 0.0 0.00 0.00 0.00 83 1015.7
20260508113554 62 145 0.0 0.0 0.00 0.00 0.00 83 1015.7
20260508113052 62 145 0.0 0.0 0.00 0.00 0.00 83 1015.6
20260508112548 62 145 0.0 0.0 0.00 0.00 0.00 83 1015.6
20260508112045 62 145 0.0 0.0 0.00 0.00 0.00 83 1015.6
20260508111542 62 145 0.0 0.0 0.00 0.00 0.00 83 1015.3
20260508111039 62 145 0.0 0.0 0.00 0.00 0.00 83 1015.5
20260508110537 62 145 0.0 0.0 0.00 0.00 0.00 83 1015.6
20260508110032 62 145 0.0 0.0 0.00 0.00 0.00 83 1015.5
20260508105527 62 145 0.0 0.0 0.00 0.00 0.00 83 1015.6
20260508105025 62 145 0.0 0.0 0.00 0.00 0.00 84 1015.5
20260508104523 62 145 0.0 0.0 0.00 0.00 0.00 83 1015.5
20260508104019 61 145 0.0 0.0 0.00 0.00 0.00 83 1015.5
20260508103516 61 145 0.0 0.0 0.00 0.00 0.00 84 1015.3
20260508103013 61 145 0.0 0.0 0.00 0.00 0.00 84 1015.6
20260508102511 61 145 0.0 0.0 0.00 0.00 0.00 83 1015.6
20260508102009 61 145 0.0 0.0 0.00 0.00 0.00 83 1015.4
20260508101506 61 144 0.0 0.0 0.00 0.00 0.00 83 1015.4
20260508101002 61 144 0.0 0.0 0.00 0.00 0.00 83 1015.4
20260508100501 61 144 0.0 0.0 0.00 0.00 0.00 83 1015.5
20260508095957 61 145 0.0 0.0 0.00 0.00 0.00 83 1015.6
20260508095455 61 145 0.0 0.0 0.00 0.00 0.00 83 1015.6
20260508094951 61 145 0.0 0.0 0.00 0.00 0.00 83 1015.7
20260508094448 61 145 0.0 0.0 0.00 0.00 0.00 82 1015.7
20260508093945 61 145 0.0 0.0 0.00 0.00 0.00 83 1015.8
20260508093442 61 145 0.0 0.0 0.00 0.00 0.00 82 1015.7
20260508092940 61 141 0.0 0.0 0.00 0.00 0.00 83 1015.5
20260508092437 61 139 0.0 0.0 0.00 0.00 0.00 82 1015.5
20260508091936 61 139 0.0 0.0 0.00 0.00 0.00 82 1015.7
20260508091432 61 139 0.9 0.9 0.00 0.00 0.00 82 1015.7
20260508090930 61 121 0.0 0.0 0.00 0.00 0.00 83 1015.7
20260508090428 61 122 0.9 0.9 0.00 0.00 0.00 83 1015.8
20260508085923 61 121 0.0 0.0 0.00 0.00 0.00 83 1015.9
20260508085421 61 121 0.9 0.9 0.00 0.00 0.00 84 1016.0
20260508084917 61 167 0.0 0.0 0.00 0.00 0.00 85 1015.9
20260508084414 61 167 0.0 0.0 0.00 0.00 0.00 85 1015.8
20260508083912 61 167 0.0 0.0 0.00 0.00 0.00 85 1015.9
20260508083409 61 167 0.0 0.0 0.00 0.00 0.00 85 1015.9
20260508082908 61 167 0.0 0.0 0.00 0.00 0.00 85 1016.0
20260508082406 61 167 0.0 0.0 0.00 0.00 0.00 85 1016.1
20260508081904 61 170 0.0 0.9 0.00 0.00 0.00 86 1016.1
20260508081401 61 171 0.0 0.0 0.00 0.00 0.00 87 1016.1
20260508080857 60 171 0.0 0.0 0.00 0.00 0.00 88 1016.1
20260508080355 60 172 0.0 0.9 0.00 0.00 0.00 88 1016.2
20260508075851 60 172 0.9 0.9 0.00 0.00 0.00 88 1016.1
20260508075349 60 172 0.0 0.0 0.00 0.00 0.00 88 1016.1
20260508074846 60 178 0.0 0.0 0.00 0.00 0.00 88 1016.2
20260508074343 60 179 0.0 0.0 0.00 0.00 0.00 88 1016.1
20260508073840 60 179 0.0 0.0 0.00 0.00 0.00 88 1016.3
20260508073338 60 179 0.0 0.0 0.00 0.00 0.00 88 1016.2
20260508072834 60 178 0.0 0.0 0.00 0.00 0.00 88 1016.1
20260508072331 60 178 0.0 0.0 0.00 0.00 0.00 88 1016.3
20260508071828 61 178 0.0 0.0 0.00 0.00 0.00 88 1016.4
20260508071327 61 178 0.0 0.9 0.00 0.00 0.00 88 1016.1
20260508070824 61 180 0.0 0.0 0.00 0.00 0.00 88 1016.2
20260508070322 61 180 0.0 0.0 0.00 0.00 0.00 88 1016.2
20260508065819 61 194 0.0 0.0 0.00 0.00 0.00 87 1016.2
20260508065317 61 194 0.0 0.0 0.00 0.00 0.00 87 1016.2
20260508064815 61 195 1.7 1.7 0.00 0.00 0.00 87 1016.1
20260508064312 61 124 0.0 0.0 0.00 0.00 0.00 87 1016.0
20260508063809 61 123 0.0 0.0 0.00 0.00 0.00 87 1016.0
20260508063308 62 120 0.0 0.9 0.00 0.00 0.00 87 1016.0
20260508062804 62 120 0.0 0.0 0.00 0.00 0.00 86 1015.9
20260508062305 62 116 0.0 0.0 0.00 0.00 0.00 86 1015.8
20260508061759 62 117 0.9 0.9 0.00 0.00 0.00 85 1015.8
20260508061256 62 117 0.0 0.0 0.00 0.00 0.00 84 1016.1
20260508060752 62 117 0.9 0.9 0.00 0.00 0.00 84 1015.8
20260508060250 62 138 0.9 0.9 0.00 0.00 0.00 83 1016.0
20260508055745 62 151 0.9 0.9 0.00 0.00 0.00 83 1016.0
20260508055243 62 158 0.0 0.0 0.00 0.00 0.00 83 1016.0
20260508054739 62 160 0.0 0.0 0.00 0.00 0.00 83 1016.0
20260508054237 62 160 0.0 0.0 0.00 0.00 0.00 82 1016.1
20260508053734 62 209 0.0 0.0 0.00 0.00 0.00 82 1015.9
20260508053231 62 209 0.0 0.0 0.00 0.00 0.00 81 1016.1
20260508052728 62 209 0.0 0.0 0.00 0.00 0.00 79 1015.9
20260508052225 62 209 0.0 0.0 0.00 0.00 0.00 79 1015.8
20260508051721 62 209 0.0 0.0 0.00 0.00 0.00 79 1016.0
20260508051217 62 209 0.0 0.0 0.00 0.00 0.00 79 1016.0
20260508050714 62 209 0.0 0.0 0.00 0.00 0.00 79 1015.8
20260508050211 62 209 0.0 0.0 0.00 0.00 0.00 79 1015.7
20260508045706 62 209 0.0 0.0 0.00 0.00 0.00 79 1015.7
20260508045205 62 209 0.0 0.0 0.00 0.00 0.00 78 1015.7
20260508044701 63 209 0.0 0.0 0.00 0.00 0.00 78 1015.8
20260508044158 63 209 0.0 0.0 0.00 0.00 0.00 78 1015.6
20260508043653 63 209 0.0 0.0 0.00 0.00 0.00 78 1015.5
20260508043152 63 209 0.0 0.0 0.00 0.00 0.00 78 1015.5
20260508042648 63 209 0.0 0.0 0.00 0.00 0.00 77 1015.7
20260508042146 63 209 0.0 0.0 0.00 0.00 0.00 77 1015.3
20260508041642 63 209 0.0 0.0 0.00 0.00 0.00 76 1015.3
20260508041139 64 209 0.0 0.0 0.00 0.00 0.00 76 1015.2
20260508040635 64 209 0.0 0.0 0.00 0.00 0.00 75 1015.1
20260508040133 64 209 0.0 0.0 0.00 0.00 0.00 75 1015.1
20260508035630 64 209 0.0 0.0 0.00 0.00 0.00 74 1015.2
20260508035127 64 209 0.0 0.0 0.00 0.00 0.00 74 1015.0
20260508034624 64 209 0.0 0.0 0.00 0.00 0.00 74 1015.1
20260508034121 64 209 0.0 0.0 0.00 0.00 0.00 74 1015.0
20260508033618 65 209 0.0 0.0 0.00 0.00 0.00 73 1014.9
20260508033117 65 209 0.0 0.0 0.00 0.00 0.00 73 1014.9
20260508032613 65 209 0.0 0.9 0.00 0.00 0.00 73 1015.0
20260508032110 65 209 0.0 0.0 0.00 0.00 0.00 73 1014.9
20260508031607 65 209 0.9 0.9 0.00 0.00 0.00 72 1014.7
20260508031103 66 209 0.0 0.0 0.00 0.00 0.00 71 1014.4
20260508030559 66 209 0.0 0.0 0.00 0.00 0.00 71 1014.4
20260508030058 66 210 0.0 0.0 0.00 0.00 0.00 70 1014.6
20260508025554 67 210 0.0 0.0 0.00 0.00 0.00 69 1014.3
20260508025051 67 210 0.0 0.0 0.00 0.00 0.00 68 1014.3
20260508024547 67 210 0.9 0.9 0.00 0.00 0.00 67 1014.2
20260508024044 68 210 0.9 0.9 0.00 0.00 0.00 66 1014.3
20260508023540 68 212 0.0 0.0 0.00 0.00 0.00 65 1014.0
20260508023038 69 212 0.0 0.0 0.00 0.00 0.00 64 1013.9
20260508022533 69 212 0.0 0.0 0.00 0.00 0.00 63 1013.9
20260508022031 69 212 0.0 0.0 0.00 0.00 0.00 62 1014.0
20260508021526 69 212 0.0 0.0 0.00 0.00 0.00 61 1013.8
20260508021022 70 217 0.0 0.9 0.00 0.00 0.00 60 1013.7
20260508020521 70 217 0.0 0.0 0.00 0.00 0.00 60 1013.8
20260508020018 71 214 0.9 1.7 0.00 0.00 0.00 59 1013.7
20260508015515 71 196 0.9 0.9 0.00 0.00 0.00 58 1013.7
20260508015012 71 205 0.9 0.9 0.00 0.00 0.00 56 1013.7
20260508014508 72 190 0.0 0.9 0.00 0.00 0.00 56 1013.7
20260508014005 72 191 0.9 0.9 0.00 0.00 0.00 54 1013.7
20260508013501 73 202 0.0 0.0 0.00 0.00 0.00 55 1013.6
20260508012958 73 208 0.0 0.0 0.00 0.00 0.00 55 1013.5
20260508012455 73 209 0.0 0.0 0.00 0.00 0.00 53 1013.6
20260508011953 74 207 0.9 0.9 0.00 0.00 0.00 53 1013.4
20260508011451 74 204 0.0 0.0 0.00 0.00 0.00 53 1013.5
20260508010948 74 207 0.0 0.0 0.00 0.00 0.00 53 1013.6
20260508010445 74 207 0.9 0.9 0.00 0.00 0.00 52 1013.6
20260508005942 75 209 0.0 0.0 0.00 0.00 0.00 52 1013.6
20260508005438 75 194 0.0 0.0 0.00 0.00 0.00 51 1013.6
20260508004934 76 192 0.9 0.9 0.00 0.00 0.00 51 1013.5
20260508004431 76 196 0.0 0.0 0.00 0.00 0.00 51 1013.6